Weather in Yurmala

Latvia     56°58′13″N   23°46′30″E
temp.,
°C
wind,
m/s
gust,
m/s
humid.,
%
clouds,
%
prec.,
mm/h
press.,
hPa
HPBL,
m
23 april, fri
fri2300:00+3ssw61095100 0.3 1005608
03:00+2sw71190100 1.7 1004848
06:00+3wsw5889100 0.6 1004914
09:00+2wnw71095100 2.0 1006891
12:00+4w81278100 0.6 10081324
15:00+4wnw91277100 1.1 10101321
18:00+4nw81277100 0.4 10121237
21:00+2wnw8117799 0.5 10131082
24 april, sat
sat2400:00+2wnw81184100 0.3 10141059
03:00+2wnw71277100 0.4 1014996
06:00+1w6117320 0.0 1014603
09:00+3wnw68665 0.0 1014886
12:00+5nw695792 0.2 10141432
15:00+4nw8106391 0.4 10141350
18:00+3wnw81173100 0.3 10141270
21:00+2wnw91279100 0.6 10141110
25 april, sun
sun2500:00+1wnw8139697 0.5 10131021
03:00+2wnw91385100 0.8 10121106
06:00+1w81397100 0.3 1011874
09:00+2wnw71197100 0.9 1011597
12:00+3nw8109098 0.7 1012828
15:00+4nw8117993 1.2 10131154
18:00+3nw9118093 0.6 10131095
21:00+2wnw9118183 0.7 10131016
26 april, mon
mon2600:00+1w7119598 0.2 1012671
03:00+2wnw6996100 0.8 1011681
06:00+2wnw5797100 0.6 1011539
09:00+2wnw6894100 1.3 1011689
12:00+3wnw6783100 0.6 1011823
15:00+4nw4782100 1.1 1011755
18:00+3w6996100 0.5 1010594
21:00+2wnw5797100 1.1 1009539
27 april, tue
tue2700:00+2wnw4698100 0.2 1009411
03:00+3w4898100 0.3 1008407
06:00+4nw6996100 0.4 1008785
09:00+4nw6894100 0.9 1010751
12:00+4nnw5694100 0.4 1011618
15:00+4nnw4493100 0.5 1011392
18:00+4nw459398 0.1 1012401
21:00+4nnw3492100 0.2 1012375